Time,TemperatureF,DewpointF,PressureIn,WindDirection,WindDirectionDegrees,WindSpeedMPH,WindSpeedGustMPH,Humidity,HourlyPrecipIn,Conditions,Clouds,dailyrainin,SoftwareType,DateUTC
2013-01-13 00:03:00,59.2,58.6,29.93,SSE,157,0.0,-999.0,98,-99.99,,,0.00,Acu-Link.com,2013-01-13 05:03:00,
2013-01-13 00:18:00,59.2,58.6,29.93,SSE,157,0.0,-999.0,98,-99.99,,,0.00,Acu-Link.com,2013-01-13 05:18:00,
2013-01-13 00:33:00,58.8,58.2,29.94,SE,135,0.0,-999.0,98,-99.99,,,0.00,Acu-Link.com,2013-01-13 05:33:00,
2013-01-13 00:48:00,58.6,58.0,29.93,South,180,0.0,-999.0,98,-99.99,,,0.00,Acu-Link.com,2013-01-13 05:48:00,
2013-01-13 01:04:00,58.5,57.9,29.94,South,180,0.0,-999.0,98,-99.99,,,0.00,Acu-Link.com,2013-01-13 06:04:00,
2013-01-13 01:19:00,59.2,58.6,29.94,SSE,157,0.0,-999.0,98,-99.99,,,0.00,Acu-Link.com,2013-01-13 06:19:00,
2013-01-13 01:34:00,59.2,58.6,29.93,South,180,0.0,-999.0,98,-99.99,,,0.00,Acu-Link.com,2013-01-13 06:34:00,
2013-01-13 01:49:00,59.0,58.4,29.94,SW,225,0.0,-999.0,98,-99.99,,,0.00,Acu-Link.com,2013-01-13 06:49:00,
2013-01-13 02:04:00,58.6,58.0,29.94,NNE,22,0.0,-999.0,98,-99.99,,,0.00,Acu-Link.com,2013-01-13 07:04:00,
2013-01-13 02:19:00,58.1,57.5,29.94,South,180,0.0,-999.0,98,-99.99,,,0.00,Acu-Link.com,2013-01-13 07:19:00,
2013-01-13 02:34:00,57.7,57.1,29.94,WSW,247,0.0,-999.0,98,-99.99,,,0.00,Acu-Link.com,2013-01-13 07:34:00,
2013-01-13 02:49:00,57.6,57.0,29.95,ESE,112,0.0,-999.0,98,-99.99,,,0.00,Acu-Link.com,2013-01-13 07:49:00,
2013-01-13 03:04:00,57.0,56.4,29.94,SW,225,0.0,-999.0,98,-99.99,,,0.00,Acu-Link.com,2013-01-13 08:04:00,
2013-01-13 03:19:00,56.7,56.1,29.94,SSW,202,0.0,-999.0,98,-99.99,,,0.00,Acu-Link.com,2013-01-13 08:19:00,
2013-01-13 03:35:00,56.3,55.7,29.93,South,180,0.0,-999.0,98,-99.99,,,0.00,Acu-Link.com,2013-01-13 08:35:00,
2013-01-13 03:50:00,56.3,55.7,29.93,NNW,337,0.0,-999.0,98,-99.99,,,0.00,Acu-Link.com,2013-01-13 08:50:00,
2013-01-13 04:09:00,56.3,55.7,29.93,ESE,112,0.0,-999.0,98,-99.99,,,0.00,Acu-Link.com,2013-01-13 09:09:00,
2013-01-13 04:24:00,55.8,55.2,29.93,SSE,157,0.0,-999.0,98,-99.99,,,0.00,Acu-Link.com,2013-01-13 09:24:00,
2013-01-13 04:39:00,55.8,55.2,29.92,SSE,157,0.0,-999.0,98,-99.99,,,0.00,Acu-Link.com,2013-01-13 09:39:00,
2013-01-13 04:54:00,55.8,55.2,29.93,SSE,157,0.0,-999.0,98,-99.99,,,0.00,Acu-Link.com,2013-01-13 09:54:00,
2013-01-13 05:10:00,55.6,55.0,29.93,SSE,157,0.0,-999.0,98,-99.99,,,0.00,Acu-Link.com,2013-01-13 10:10:00,
2013-01-13 05:25:00,55.6,55.0,29.93,SSE,157,0.0,-999.0,98,-99.99,,,0.00,Acu-Link.com,2013-01-13 10:25:00,
2013-01-13 05:40:00,55.6,55.0,29.93,SSE,157,0.0,-999.0,98,-99.99,,,0.00,Acu-Link.com,2013-01-13 10:40:00,
2013-01-13 05:55:00,55.2,54.6,29.93,West,270,0.0,-999.0,98,-99.99,,,0.00,Acu-Link.com,2013-01-13 10:55:00,
2013-01-13 06:10:00,54.9,54.3,29.94,WSW,247,0.0,-999.0,98,-99.99,,,0.00,Acu-Link.com,2013-01-13 11:10:00,
2013-01-13 06:25:00,54.9,54.3,29.94,WSW,247,0.0,-999.0,98,-99.99,,,0.00,Acu-Link.com,2013-01-13 11:25:00,
2013-01-13 06:40:00,54.7,54.1,29.95,WSW,247,0.0,-999.0,98,-99.99,,,0.00,Acu-Link.com,2013-01-13 11:40:00,
2013-01-13 06:55:00,54.1,53.5,29.95,SSW,202,0.0,-999.0,98,-99.99,,,0.00,Acu-Link.com,2013-01-13 11:55:00,
2013-01-13 07:10:00,54.1,53.5,29.95,SSW,202,0.0,-999.0,98,-99.99,,,0.00,Acu-Link.com,2013-01-13 12:10:00,
2013-01-13 07:26:00,53.8,53.2,29.96,NNE,22,0.0,-999.0,98,-99.99,,,0.00,Acu-Link.com,2013-01-13 12:26:00,
2013-01-13 07:41:00,54.0,53.4,29.96,WSW,247,0.0,-999.0,98,-99.99,,,0.00,Acu-Link.com,2013-01-13 12:41:00,
2013-01-13 07:56:00,54.3,53.7,29.97,SSE,157,0.0,-999.0,98,-99.99,,,0.00,Acu-Link.com,2013-01-13 12:56:00,
2013-01-13 08:11:00,55.0,54.4,29.97,West,270,0.0,-999.0,98,-99.99,,,0.00,Acu-Link.com,2013-01-13 13:11:00,
2013-01-13 08:26:00,56.1,55.5,29.98,South,180,0.0,-999.0,98,-99.99,,,0.00,Acu-Link.com,2013-01-13 13:26:00,
2013-01-13 08:41:00,56.7,56.1,29.97,South,180,0.0,-999.0,98,-99.99,,,0.00,Acu-Link.com,2013-01-13 13:41:00,
2013-01-13 08:56:00,58.1,57.5,29.98,SSE,157,0.0,-999.0,98,-99.99,,,0.00,Acu-Link.com,2013-01-13 13:56:00,
2013-01-13 09:11:00,59.2,58.6,29.97,West,270,0.0,-999.0,98,-99.99,,,0.00,Acu-Link.com,2013-01-13 14:11:00,
2013-01-13 09:26:00,60.6,60.0,29.98,East,90,0.0,-999.0,98,-99.99,,,0.00,Acu-Link.com,2013-01-13 14:26:00,
2013-01-13 09:42:00,63.0,62.4,29.99,South,180,2.2,-999.0,98,-99.99,,,0.00,Acu-Link.com,2013-01-13 14:42:00,
2013-01-13 09:57:00,63.5,62.9,29.98,South,180,2.2,-999.0,98,-99.99,,,0.00,Acu-Link.com,2013-01-13 14:57:00,
2013-01-13 10:12:00,64.4,63.8,29.98,East,90,2.2,-999.0,98,-99.99,,,0.00,Acu-Link.com,2013-01-13 15:12:00,
2013-01-13 10:27:00,65.5,64.9,29.98,NNE,22,1.7,-999.0,98,-99.99,,,0.00,Acu-Link.com,2013-01-13 15:27:00,
2013-01-13 10:42:00,66.0,65.4,29.97,NE,45,2.2,-999.0,98,-99.99,,,0.00,Acu-Link.com,2013-01-13 15:42:00,
2013-01-13 10:57:00,67.6,67.0,29.97,SSW,202,3.2,-999.0,98,-99.99,,,0.00,Acu-Link.com,2013-01-13 15:57:00,
2013-01-13 11:12:00,68.5,67.9,29.95,South,180,2.2,-999.0,98,-99.99,,,0.00,Acu-Link.com,2013-01-13 16:12:00,
2013-01-13 11:27:00,70.2,69.6,29.95,SE,135,2.2,-999.0,98,-99.99,,,0.00,Acu-Link.com,2013-01-13 16:27:00,
2013-01-13 11:42:00,70.9,70.3,29.94,NW,315,2.7,-999.0,98,-99.99,,,0.00,Acu-Link.com,2013-01-13 16:42:00,
2013-01-13 11:57:00,71.6,71.0,29.93,SSW,202,4.2,-999.0,98,-99.99,,,0.00,Acu-Link.com,2013-01-13 16:57:00,
2013-01-13 12:13:00,72.0,71.4,29.93,South,180,3.7,-999.0,98,-99.99,,,0.00,Acu-Link.com,2013-01-13 17:13:00,
2013-01-13 12:28:00,72.5,71.9,29.91,SSW,202,4.7,-999.0,98,-99.99,,,0.00,Acu-Link.com,2013-01-13 17:28:00,
2013-01-13 12:43:00,72.9,72.3,29.91,NE,45,2.7,-999.0,98,-99.99,,,0.00,Acu-Link.com,2013-01-13 17:43:00,
2013-01-13 12:58:00,73.6,71.4,29.91,North,0,1.7,-999.0,93,-99.99,,,0.00,Acu-Link.com,2013-01-13 17:58:00,
2013-01-13 13:13:00,74.1,71.0,29.90,NNE,22,2.7,-999.0,90,-99.99,,,0.00,Acu-Link.com,2013-01-13 18:13:00,
2013-01-13 13:28:00,73.9,70.4,29.89,NW,315,1.7,-999.0,89,-99.99,,,0.00,Acu-Link.com,2013-01-13 18:28:00,
2013-01-13 13:43:00,74.1,71.3,29.89,SSE,157,2.2,-999.0,91,-99.99,,,0.00,Acu-Link.com,2013-01-13 18:43:00,
2013-01-13 13:58:00,74.8,68.9,29.88,SSW,202,6.3,-999.0,82,-99.99,,,0.00,Acu-Link.com,2013-01-13 18:58:00,
2013-01-13 14:13:00,75.0,68.4,29.88,SSW,202,2.7,-999.0,80,-99.99,,,0.00,Acu-Link.com,2013-01-13 19:13:00,
2013-01-13 14:29:00,76.3,68.9,29.89,NNE,22,1.1,-999.0,78,-99.99,,,0.00,Acu-Link.com,2013-01-13 19:29:00,
2013-01-13 14:44:00,74.7,68.8,29.88,SE,135,3.7,-999.0,82,-99.99,,,0.00,Acu-Link.com,2013-01-13 19:44:00,
2013-01-13 14:59:00,75.7,68.0,29.90,WNW,292,2.7,-999.0,77,-99.99,,,0.00,Acu-Link.com,2013-01-13 19:59:00,
2013-01-13 15:14:00,74.7,68.1,29.89,South,180,1.7,-999.0,80,-99.99,,,0.00,Acu-Link.com,2013-01-13 20:14:00,
2013-01-13 15:29:00,74.8,68.2,29.91,SSE,157,2.2,-999.0,80,-99.99,,,0.00,Acu-Link.com,2013-01-13 20:29:00,
2013-01-13 15:44:00,74.3,68.4,29.90,West,270,2.2,-999.0,82,-99.99,,,0.00,Acu-Link.com,2013-01-13 20:44:00,
2013-01-13 15:59:00,73.6,68.8,29.90,South,180,1.7,-999.0,85,-99.99,,,0.00,Acu-Link.com,2013-01-13 20:59:00,
2013-01-13 16:14:00,73.0,68.9,29.90,East,90,1.7,-999.0,87,-99.99,,,0.00,Acu-Link.com,2013-01-13 21:14:00,
2013-01-13 16:29:00,72.3,68.9,29.90,SW,225,0.0,-999.0,89,-99.99,,,0.00,Acu-Link.com,2013-01-13 21:29:00,
2013-01-13 16:45:00,71.6,69.5,29.91,NW,315,1.1,-999.0,93,-99.99,,,0.00,Acu-Link.com,2013-01-13 21:45:00,
2013-01-13 17:00:00,70.3,69.4,29.91,NNW,337,0.0,-999.0,97,-99.99,,,0.00,Acu-Link.com,2013-01-13 22:00:00,
2013-01-13 17:15:00,68.7,68.1,29.91,South,180,0.0,-999.0,98,-99.99,,,0.00,Acu-Link.com,2013-01-13 22:15:00,
2013-01-13 17:30:00,67.3,66.7,29.91,ENE,67,0.0,-999.0,98,-99.99,,,0.00,Acu-Link.com,2013-01-13 22:30:00,
2013-01-13 17:45:00,66.0,65.4,29.91,North,0,0.0,-999.0,98,-99.99,,,0.00,Acu-Link.com,2013-01-13 22:45:00,
2013-01-13 18:00:00,64.9,64.3,29.90,North,0,0.0,-999.0,98,-99.99,,,0.00,Acu-Link.com,2013-01-13 23:00:00,
2013-01-13 18:15:00,64.2,63.6,29.91,SSE,157,0.0,-999.0,98,-99.99,,,0.00,Acu-Link.com,2013-01-13 23:15:00,
2013-01-13 18:30:00,64.0,63.4,29.90,NNW,337,0.0,-999.0,98,-99.99,,,0.00,Acu-Link.com,2013-01-13 23:30:00,
2013-01-13 18:45:00,64.4,63.8,29.91,SSE,157,0.0,-999.0,98,-99.99,,,0.00,Acu-Link.com,2013-01-13 23:45:00,
2013-01-13 19:01:00,63.9,63.3,29.91,West,270,0.0,-999.0,98,-99.99,,,0.00,Acu-Link.com,2013-01-14 00:01:00,
2013-01-13 19:16:00,64.0,63.4,29.91,WNW,292,0.0,-999.0,98,-99.99,,,0.00,Acu-Link.com,2013-01-14 00:16:00,
2013-01-13 19:31:00,63.7,63.1,29.91,South,180,0.0,-999.0,98,-99.99,,,0.00,Acu-Link.com,2013-01-14 00:31:00,
2013-01-13 19:46:00,63.7,63.1,29.90,SSE,157,0.0,-999.0,98,-99.99,,,0.00,Acu-Link.com,2013-01-14 00:46:00,
2013-01-13 20:01:00,63.9,63.3,29.90,South,180,1.1,-999.0,98,-99.99,,,0.00,Acu-Link.com,2013-01-14 01:01:00,
2013-01-13 20:16:00,63.7,63.1,29.91,South,180,1.7,-999.0,98,-99.99,,,0.00,Acu-Link.com,2013-01-14 01:16:00,
2013-01-13 20:31:00,63.0,62.4,29.91,SSW,202,0.0,-999.0,98,-99.99,,,0.00,Acu-Link.com,2013-01-14 01:31:00,
2013-01-13 20:46:00,62.6,62.0,29.91,WNW,292,0.0,-999.0,98,-99.99,,,0.00,Acu-Link.com,2013-01-14 01:46:00,
2013-01-13 21:01:00,62.2,61.6,29.91,SW,225,0.0,-999.0,98,-99.99,,,0.00,Acu-Link.com,2013-01-14 02:01:00,
2013-01-13 21:17:00,62.1,61.5,29.91,SW,225,1.7,-999.0,98,-99.99,,,0.00,Acu-Link.com,2013-01-14 02:17:00,
2013-01-13 21:32:00,62.4,61.8,29.92,NE,45,0.0,-999.0,98,-99.99,,,0.00,Acu-Link.com,2013-01-14 02:32:00,
2013-01-13 21:47:00,62.6,62.0,29.91,East,90,1.7,-999.0,98,-99.99,,,0.00,Acu-Link.com,2013-01-14 02:47:00,
2013-01-13 22:02:00,63.3,62.7,29.92,West,270,0.0,-999.0,98,-99.99,,,0.00,Acu-Link.com,2013-01-14 03:02:00,
2013-01-13 22:17:00,63.1,62.5,29.92,North,0,3.2,-999.0,98,-99.99,,,0.00,Acu-Link.com,2013-01-14 03:17:00,
2013-01-13 22:32:00,63.1,62.5,29.92,WSW,247,0.0,-999.0,98,-99.99,,,0.00,Acu-Link.com,2013-01-14 03:32:00,
2013-01-13 22:47:00,63.3,62.7,29.92,South,180,0.0,-999.0,98,-99.99,,,0.00,Acu-Link.com,2013-01-14 03:47:00,
2013-01-13 23:02:00,63.1,62.5,29.93,ESE,112,0.0,-999.0,98,-99.99,,,0.00,Acu-Link.com,2013-01-14 04:02:00,
2013-01-13 23:17:00,63.5,62.9,29.92,NE,45,0.0,-999.0,98,-99.99,,,0.00,Acu-Link.com,2013-01-14 04:17:00,
2013-01-13 23:33:00,63.3,62.7,29.93,South,180,4.2,-999.0,98,-99.99,,,0.00,Acu-Link.com,2013-01-14 04:33:00,
2013-01-13 23:48:00,63.3,62.7,29.92,West,270,1.7,-999.0,98,-99.99,,,0.00,Acu-Link.com,2013-01-14 04:48:00,